{"data":{"norad_id":58300,"epoch":"2026-09-21T22:47:02.402304Z","epoch_age_seconds":116803,"freshness":"FRESH","line1":"1 58300U 23174AW  26264.94933336  .00001017  00000+0  68276-4 0  9994","line2":"2 58300  97.6060 318.7178 0096713 226.3815 132.9360 15.05446413156092","mean_motion":15.05446413,"eccentricity":0.0096713,"inclination_deg":97.606,"raan_deg":318.7178,"arg_perigee_deg":226.3815,"mean_anomaly_deg":132.936,"bstar":6.8276e-5,"rev_number":15609,"period_min":95.652690628185,"perigee_km":483.13030351795,"apogee_km":617.14111118718,"semimajor_km":6928.2727073526,"source":"CELESTRAK","updated_at":"2026-09-22T09:00:26.580461Z"}}